Location: Unspecified
(48.5670°N, 0.0000°E)
Time: 11:53:05
(UTC+00:00)

Tiros 1 - Pass Details

Date: 28 October 2020
Orbit: 630 x 664 km, 48.4° (Epoch: 03 December)

Event Time Altitude Azimuth Distance (km) Brightness Sun altitude
Exits shadow 04:11:50 48° 164° (SSE) 823 7.6 -25.1°
Maximum altitude 04:12:00 48° 155° (SSE) 819 7.7 -25.0°
Drops below altitude 10° 04:16:27 10° 81° (E) 2,009 10.8 -24.3°
Sets 04:18:50 0° 76° (ENE) 2,920 11.9 -23.9°
